Location: *
(33.3200°N, 8.3381°W)
Time: 16:15:15
(UTC+00:00)

ATLAS 2AS CENTAUR R/B - Pass Details

Date: 09 April 2020
Orbit: 933 x 1279 km, 63.7° (Epoch: 25 May)

Event Time Altitude Azimuth Distance (km) Brightness Sun altitude
Rises 21:49:56 0° 317° (NW) 4,060 6.8 -33.1°
Reaches altitude 10° 21:53:12 10° 305° (NW) 3,037 5.9 -33.6°
Maximum altitude 21:58:54 26° 253° (WSW) 1,989 4.3 -34.5°
Enters shadow 22:00:31 24° 232° (SW) 2,060 4.2 -34.8°
